User: anonymous   Login
Location: Oshawa
(43.9000°N, 78.8670°W)
Time: 11:41:52
(UTC-04:00)
Language:

Cosmos 839 Rocket - Orbit

View from above orbital plane
View from above orbital plane
View from above satellite
View from above satellite

Ground track
Ground track

The orbit data is extracted from the following two-line orbital elements,

1  9013U 76067B   17174.86793594 -.00000119 +00000-0 -22081-3 0  9999
2  9013 065.8664 353.4807 0706491 070.2629 021.8884 12.35327987847235
Epoch (UTC): 23 June 2017 20:49:49
Eccentricity: 0.0706491
inclination: 65.8664°
perigee height: 968 km
apogee height: 2085 km
right ascension of ascending node: 353.4807°
argument of perigee: 70.2629°
revolutions per day: 12.35327987
mean anomaly at epoch: 21.8884°
orbit number at epoch: 84723

The dashed part of the orbit path shows where the satellite is in the earth's shadow,  

DLR